DCBB
1 40912U 15049P 21266.81812734 .00002078 00000-0 93868-4 0 9991
2 40912 97.4453 275.4070 0014922 151.4244 333.4422 15.22003754333159
TW-1A
1 40928U 15051D 21266.82838140 .00007250 00000-0 14472-3 0 9991
2 40928 97.0716 289.4159 0007321 299.9980 181.0173 15.47103681336898
IO-86
1 40931U 15052B 21266.40864341 .00000820 00000-0 24986-4 0 9990
2 40931 6.0005 273.7993 0013405 349.3644 10.6466 14.76691178323805
ATHENOXAT-1
1 41168U 15077C 21266.68498843 .00003049 00000-0 11773-3 0 9995
2 41168 14.9863 258.5547 0010956 102.3333 236.1582 15.16146118319706
ChubuSat-2
1 41338U 16012B 21266.45054336 .00000653 00000-0 43691-4 0 9997
2 41338 31.0027 282.7193 0013595 24.8861 335.2428 15.00609734307336
ChubuSat-3
1 41339U 16012C 21266.73019342 .00000488 00000-0 30854-4 0 9990
2 41339 31.0118 278.0687 0013535 34.7881 325.3650 15.00750654307379
Horyu-4
1 41340U 16012D 21266.37830685 .00001011 00000-0 68702-4 0 9999
2 41340 31.0042 262.6454 0013671 65.7383 294.4680 15.02024096307522
e-st@r-II
1 41459U 16025D 21266.86349873 .00003914 00000-0 18940-3 0 9994
2 41459 98.1554 49.0457 0159447 91.0080 270.9447 15.08687036297256
AAUSAT4
1 41460U 16025E 21266.88263806 .00004281 00000-0 19632-3 0 9996
2 41460 98.1565 53.4581 0145482 73.0618 288.6552 15.12042845297585
LO-87
1 41557U 16033B 21266.78572650 .00002562 00000-0 90931-4 0 9993
2 41557 97.3940 0.2051 0011265 242.9400 233.5027 15.29936685296564
NuSat2
1 41558U 16033C 21266.78320500 .00002683 00000-0 89165-4 0 9990
2 41558 97.4068 4.4878 0010413 234.7038 244.2581 15.32042832296773
Lapan A3
1 41603U 16040E 21266.74557964 .00000195 00000-0 12031-4 0 9995
2 41603 97.2469 309.8964 0013812 25.3325 84.6128 15.20102406291515
Pratham
1 41783U 16059A 21266.39402659 .00000103 00000-0 28983-4 0 9997
2 41783 97.9547 313.0955 0032247 298.1627 61.6319 14.63167572266579
TY-1
1 41844U 16066D 21266.82609061 .00001512 00000-0 61296-4 0 9996
2 41844 97.3987 276.0429 0015389 144.9798 333.1269 15.26090318270904
CAS-2T
1 41847U 16066G 21266.43006820 .00000132 00000-0 31123-4 0 9993
2 41847 98.5915 325.9180 0363967 287.9634 68.2200 14.38238292255961
EO-88
1 42017U 17008BX 21266.43463273 .00004700 00000-0 17058-3 0 9994
2 42017 97.3071 332.2709 0007464 115.6051 244.5961 15.28775960256227
CAS-4B
1 42759U 17034B 21266.71167068 .00000727 00000-0 56794-4 0 9996
2 42759 43.0191 0.8315 0007294 50.5269 76.1989 15.10379052236007
CAS-4A
1 42761U 17034D 21266.76576799 .00000567 00000-0 47130-4 0 9995
2 42761 43.0203 359.5135 0007730 53.0201 88.4522 15.10465948236017
NIUSat
1 42766U 17036B 21266.67716036 .00002318 00000-0 10095-3 0 9997
2 42766 97.2410 309.2115 0014766 182.8118 177.3039 15.23087928236167
Aalto 1
1 42775U 17036L 21266.39255659 .00001838 00000-0 80959-4 0 9998
2 42775 97.2377 309.1331 0013282 182.2858 177.8320 15.22970539236105
URSA MAIOR
1 42776U 17036M 21266.37712716 .00002042 00000-0 88880-4 0 9998
2 42776 97.2391 309.6425 0013088 181.4593 178.6609 15.23265635236128
Max Valier Sat
1 42778U 17036P 21266.41260709 .00002175 00000-0 92630-4 0 9990
2 42778 97.2457 311.7817 0011666 182.0027 178.1166 15.23956447236201
Pegasus
1 42784U 17036V 21266.35934235 .00003141 00000-0 12900-3 0 9997
2 42784 97.2406 312.2643 0011151 184.5714 175.5424 15.24860907236275
NUDATSat
1 42787U 17036Y 21266.62749711 .00004000 00000-0 15331-3 0 9999
2 42787 97.2465 315.2724 0009186 177.6013 182.5272 15.27039776236315
SUCHAI 1
1 42788U 17036Z 21266.37051498 .00003743 00000-0 14928-3 0 9994
2 42788 97.2416 313.3980 0010753 180.8693 179.2529 15.25739798236415
SKCUBE
1 42789U 17036AA 21266.08983164 .00003170 00000-0 12801-3 0 9999
2 42789 97.2410 312.7891 0010609 182.4570 177.6618 15.25433293236272
VZLUSAT 1
1 42790U 17036AB 21266.36131860 .00005098 00000-0 19482-3 0 9993
2 42790 97.2442 315.0009 0010205 175.4830 184.6504 15.27001821236428
VENTA 1
1 42791U 17036AC 21266.40327881 .00003047 00000-0 12348-3 0 9995
2 42791 97.2407 313.0931 0010328 181.7617 178.3587 15.25351305236313
Robusta 1B
1 42792U 17036AD 21266.37065207 .00003679 00000-0 14694-3 0 9990
2 42792 97.2413 313.4805 0010248 181.0115 179.1105 15.25702242236351
D-SAT
1 42794U 17036AF 21266.56720975 .00000405 00000-0 40289-4 0 9997
2 42794 97.4597 281.2398 0123645 257.8809 100.8536 14.91687530231689
TechnoSat
1 42829U 17042E 21266.61656072 .00000250 00000-0 30264-4 0 9995
2 42829 97.4541 130.8680 0014180 173.0302 187.1117 14.91345851228316
QIKCOM-1
1 42983U 98067NF 21266.30030814 .00015377 00000-0 13587-3 0 9992
2 42983 51.6346 121.5277 0002360 10.4147 349.6898 15.68880483222752
AO-91
1 43017U 17073E 21266.66103755 .00001885 00000-0 14974-3 0 9993
2 43017 97.6953 166.7086 0253906 340.2520 18.8994 14.79759633207643
EcAMSat
1 43019U 98067NG 21266.71650310 .00092372 00000-0 33111-3 0 9992
2 43019 51.6372 73.1755 0002172 305.7676 54.3127 15.88020253305753
PICSAT
1 43132U 18004X 21266.47835230 .00004010 00000-0 15721-3 0 9999
2 43132 97.4023 340.1346 0007956 213.4991 146.5746 15.26313521205635
AO-92
1 43137U 18004AC 21266.13752046 .00002778 00000-0 11199-3 0 9994
2 43137 97.3994 339.1569 0007634 217.7941 142.2762 15.25645990205555
TianYi 2
1 43155U 18008A 21266.89732315 .00001508 00000-0 89481-4 0 9998
2 43155 97.3933 328.8748 0016863 353.8992 92.1416 15.12717930202954
Zhou Enlai
1 43156U 18008B 21266.86316123 .00001472 00000-0 88434-4 0 9998
2 43156 97.3978 328.6805 0014209 355.1486 124.7213 15.12342750202884
TianYi 6
1 43158U 18008D 21266.71076760 .00001582 00000-0 96370-4 0 9994
2 43158 97.3940 326.9648 0013335 355.7429 121.1123 15.11737419202782
S-Net D
1 43186U 18014G 21266.54021242 .00000571 00000-0 54391-4 0 9992
2 43186 97.6674 172.3242 0012236 111.0456 249.2076 14.97139507198976
S-Net B
1 43187U 18014H 21266.54016815 .00000573 00000-0 54538-4 0 9998
2 43187 97.6671 172.2871 0012237 110.9630 249.2903 14.97138895198972
S-Net A
1 43188U 18014J 21266.54029384 .00000572 00000-0 54433-4 0 9997
2 43188 97.6675 172.3364 0012231 111.0470 249.2061 14.97137727198971
S-Net C
1 43189U 18014K 21266.54079023 .00000594 00000-0 56409-4 0 9992
2 43189 97.6671 172.2793 0012250 110.9550 249.2984 14.97137506197520
FMN 1
1 43192U 18015A 21266.88162863 .00004830 00000-0 17455-3 0 9993
2 43192 97.5013 42.8659 0012885 253.3446 235.1083 15.28877154202623
Shaonian Xing
1 43199U 18015H 21266.87860145 .00003212 00000-0 11969-3 0 9994
2 43199 97.4794 39.6404 0014148 264.2211 213.9180 15.28116666202673
SurfSat
1 43614U 18070B 21266.68876250 .00009176 00000-0 20602-3 0 9999
2 43614 93.0345 346.9747 0012873 353.3840 6.7245 15.43286787169811
CP-7 DAVE
1 43615U 18070C 21266.46648998 .00008268 00000-0 18779-3 0 9995
2 43615 93.0350 346.8245 0013148 354.4033 5.7074 15.42942475169767
ELFIN-B
1 43616U 18070D 21266.54301146 .00014903 00000-0 29895-3 0 9990
2 43616 93.0301 347.1813 0012312 349.4780 10.6218 15.46583312169922
ELFIN-A
1 43617U 18070E 21266.27564835 .00015195 00000-0 29900-3 0 9998
2 43617 93.0351 348.0132 0011620 347.6720 12.4252 15.47150305169906
CubeBel-1
1 43666U 18083E 21266.76646307 .00001630 00000-0 79356-4 0 9995
2 43666 97.4502 293.8896 0014351 179.3411 300.9160 15.19709442160940
Changshagaoxin
1 43669U 18083H 21266.77026359 .00001515 00000-0 76747-4 0 9991
2 43669 97.4414 290.6670 0010487 173.3803 303.6307 15.18466686160802
